Location: Kuppenheim
(48.8299°N, 8.2568°E)
Time: 14:40:40
(UTC+00:00)

SL-08 R/B - Pass Details

Date: 20 June 2021
Orbit: 674 x 739 km, 98.5° (Epoch: 04 August)

Event Time Altitude Azimuth Distance (km) Brightness Sun altitude
Rises 02:06:45 0° 147° (SSE) 3,038 6.4 -9.6°
Reaches altitude 10° 02:09:01 10° 141° (SE) 2,135 5.7 -9.4°
Maximum altitude 02:13:30 47° 68° (ENE) 925 4.4 -8.9°
Drops below altitude 10° 02:18:04 10° 356° (N) 2,188 6.6 -8.4°
Sets 02:20:25 0° 351° (N) 3,122 7.3 -8.2°
